Regional Weather Roundup
Issued by NWS

Home | Current Version | Previous Version | Text Only | Print | Product List | Glossary On
Versions: 1 2 3 4 5 6 7 8 9 10 11 12 13 14 15 16 17 18 19 20 21 22 23 24 25 26 27 28 29 30 31 32 33 34 35 36 37 38 39 40 41 42 43 44 45 46 47 48 49 50
000
ASUS46 KLOX 300913
RWRCA

SOUTHERN CALIFORNIA WEATHER ROUNDUP
NATIONAL WEATHER SERVICE OXNARD CALIFORNIA
200 AM PDT MON MAY 30 2016

NOTE: "FAIR" INDICATES FEW OR NO CLOUDS BELOW 12,000 FEET WITH NO
SIGNIFICANT WEATHER AND/OR OBSTRUCTIONS TO VISIBILITY.

  -  STATIONS PRECEEDED BY AN ASTERISK (*) ARE NOT NWS OR FAA
     STATIONS AND ARE NOT SUBJECT TO NWS AND FAA QUALITY CONTROL.

CAZ041-042-087-301000-
LA AND ORANGE COUNTY COASTAL AREAS


CITY           SKY/WX    TMP DP  RH WIND       PRES   REMARKS
L.A. DOWNTOWN  CLEAR     59  54  83 CALM      29.99F
L.A. AIRPORT   PTCLDY    59  54  83 W8        30.00F
LONG BEACH     CLOUDY    60  55  83 NW3       30.00S

CITY           SKY/WX    TMP DP  RH WIND       PRES   REMARKS
AVALON           N/A     55 N/A N/A MISG        N/A
FULLERTON      CLOUDY    61  55  81 CALM      29.99F
*GETTY CENTER    N/A     52  50  93 CALM        N/A
HAWTHORNE      MOCLDY    60  54  80 CALM      30.00S
*LEO CARRILLO    N/A     56  50  80 N6          N/A
*LOS ALAMITOS  CLOUDY    61  55  82 NW3       30.00S
*REDONDO BEACH   N/A     59  54  82 CALM      29.99F
SANTA ANA      CLOUDY    62  54  74 NW3       30.00S
STA MONICA APT PTCLDY    59  55  87 W5        30.00S
*STA MON PIER    N/A     58  55  90 N2        29.93S
*UCLA            N/A     55  50  82 CALM      29.97S

$$

CAZ547-548-048-301000-
LA COUNTY VALLEYS AND INLAND EMPIRE


CITY           SKY/WX    TMP DP  RH WIND       PRES   REMARKS
BURBANK        CLEAR     57  51  80 CALM      29.98F
VAN NUYS       CLEAR     58  50  75 CALM      29.99S

CITY           SKY/WX    TMP DP  RH WIND       PRES   REMARKS
CORONA AIRPORT SUNNY     55  52  89 CALM      30.00F
*CHATSWORTH      N/A     57  50  76 CALM      30.00S
CHINO          CLEAR     57  51  80 W6        30.01S
*CLAREMONT       N/A     52  50  94 CALM        N/A
MARCH AFB      PTCLDY    55  55 100 NW6       30.00S
*NORTHRIDGE      N/A     57  48  72 CALM        N/A
ONTARIO        CLEAR     56  50  80 W6        30.00S
*PASADENA        N/A     57  54  88 CALM        N/A
RIVERSIDE      CLOUDY    59  51  75 CALM      30.00S
SAN BERNARDINO NOT AVBL
*SAN RAFAEL HI   N/A     56  53  89 CALM        N/A
*SAUGUS          N/A     54  51  88 CALM        N/A
*WHITEMAN AP   NOT AVBL
*WHITTIER HILL   N/A     55  53  93 CALM        N/A
*WOODLAND HILL   N/A     55  50  82 E1          N/A

$$

CAZ054-055-301000-
LA AND SAN BERNARDINO COUNTY MOUNTAINS


CITY           SKY/WX    TMP DP  RH WIND       PRES   REMARKS
*ACTON           N/A     49  46  90 CALM        N/A
*BIG BEAR AIRP SUNNY     39  32  75 CALM      30.16S
*BIG PINES       N/A     49  34  56 CALM        N/A
*CHILAO          N/A     58  37  45 N2          N/A
SANDBERG       LGT RAIN  63  41  44 N14G23    30.08F
*WARM SPRINGS    N/A     59  43  56 CALM        N/A

$$

CAZ028-029-059-060-099-301000-
ANTELOPE VALLEY AND SURROUNDING AREAS


CITY           SKY/WX    TMP DP  RH WIND       PRES   REMARKS
LANCASTER      CLEAR     71  41  33 W20       29.93F
PALMDALE       CLEAR     66  43  43 S10       29.96S
*POPPY PARK      N/A     69  40  35 W21         N/A

CITY           SKY/WX    TMP DP  RH WIND       PRES   REMARKS
29 PALMS       CLEAR     70  37  29 N5        29.96F
BARSTOW/DAGGET CLEAR     71  44  37 W9        29.90S
BISHOP         PTCLDY    64  36  35 NW8       30.06S
EDWARDS AFB    CLEAR     66  42  41 S9        29.91S
MOJAVE         CLEAR     72  41  33 W29G38    29.93F
NEEDLES        CLEAR     74  26  16 SW8       29.83S
VICTORVILLE    CLEAR     64  43  45 CALM      29.97S

$$

CAZ039-040-301000-
VENTURA AND SANTA BARBARA COUNTY COAST


CITY           SKY/WX    TMP DP  RH WIND       PRES   REMARKS
CAMARILLO      CLOUDY    60  54  80 W6        29.99F
NWS OXNARD       N/A     59  54  84 CALM      29.99S
OXNARD AIRPORT CLOUDY    59  55  87 W8        30.00S
*POINT MUGU    CLOUDY    60  55  83 NW6       30.00F
SBA APT/GOLETA CLOUDY    59  55  87 SW3       29.99F
*SANTA BARBARA   N/A     59  53  80 CALM      30.07S
*VENTURA         N/A     59  55  88 N3        29.98S

$$

CAZ044-045-301000-
VENTURA COUNTY VALLEYS


CITY           SKY/WX    TMP DP  RH WIND       PRES   REMARKS
*SIMI VALLEY     N/A     52  50  90 CALM      29.95F
*WESTLAKE VILL   N/A     50  47  88 CALM      29.98F
*OJAI            N/A     59  54  83 CALM      29.92F
*FILLMORE        N/A     53  47  80 CALM      29.90S

$$

CAZ053-301000-
VENTURA COUNTY MOUNTAINS


CITY           SKY/WX    TMP DP  RH WIND       PRES   REMARKS
*ROSE VALLEY     N/A     50  46  87 MISG        N/A

$$

CAZ034-035-036-301000-
CENTRAL COAST AND SANTA YNEZ VALLEY


CITY           SKY/WX    TMP DP  RH WIND       PRES   REMARKS
SAN LUIS OBISP CLOUDY    57  53  86 NW6       30.02S
SANTA MARIA    CLOUDY    55  53  93 NW5       30.02S

CITY           SKY/WX    TMP DP  RH WIND       PRES   REMARKS
*CAL POLY SLO    N/A     55  54  94 SW3         N/A
*LOMPOC        CLOUDY    56  53  90 NW5       30.02S
*PISMO BEACH     N/A     57  54  89 W1        30.02S
*SANTA YNEZ    CLOUDY    55  52  88 CALM      30.00F

$$

CAZ037-038-051-301000-
SAN LUIS OBISPO COUNTY INTERIOR AND CUYAMA VALLEY


CITY           SKY/WX    TMP DP  RH WIND       PRES   REMARKS
*CUYAMA          N/A     56  44  66 W2        29.92S
PASO ROBLES    CLEAR     53  49  86 CALM      30.00S

$$

CAZ032-033-061-301000-
SOUTHERN DESERTS


CITY           SKY/WX    TMP DP  RH WIND       PRES   REMARKS
BLYTHE         CLEAR     72  43  35 SE7       29.82R
IMPERIAL       CLEAR     70  48  45 W5        29.80S
PALM SPRINGS   CLEAR     72  51  47 NW9       29.85S
THERMAL        CLEAR     73  50  44 NW13G23   29.79S

$$

ELSEWHERE ACROSS THE WESTERN UNITED STATES AND MEXICO


CITY           SKY/WX    TMP DP  RH WIND       PRES   REMARKS
DEATH VALLEY,    N/A     89  28  11 SE3         N/A
DENVER, CO     PTCLDY    48  41  76 S6        30.09F
GRAND CANYON,  CLEAR     36  15  42 CALM      30.17F
HONOLULU, HI   PTCLDY    73  70  88 NW5       30.05R
KAHULUI, MAUI  MOCLDY    72  66  83 SE5       30.05R
LAKE TAHOE, CA CLEAR     40  34  79 CALM      30.22S
LAS VEGAS, NV  CLEAR     77  20  12 CALM      29.86R
MAMMOTH LAKES, FAIR      44  35  72 N5        30.25S
MEXICO CITY, M PTCLDY    61  54  77 CALM      30.35S
PHOENIX, AZ    PTCLDY    77  24  14 S3        29.85S
PORTLAND, OR   CLEAR     53  44  71 NW9       30.24S
RENO, NV       PTCLDY    61  34  36 SE5       30.14R
SALT LAKE CITY CLOUDY    60  50  69 SE9       30.12R
SAN DIEGO, CA  CLOUDY    62  58  86 N5        30.02S
SAN FRANCISCO, PTCLDY    53  48  83 W8        29.99F
SAN JOSE, CA   CLEAR     58  50  75 SE8       29.99S
SEATTLE, WA    CLEAR     52  43  71 NE10      30.27S
TIJUANA, MEX   CLOUDY    61  54  77 CALM      30.02F

$$

STATION/POSITION TIME  TEMP    WIND        PRES    VSBY  WAVE
                       AIR SEA DIR/SP/G                  HT/PER
                 (UTC) (F)     (DEG/KT/KT) (MB)    (MI)  (FT/S)
POINT ARGUELLO B NOT AVBL
WEST SANTA BARBA 0850   55 57  320/ 14/ 16 1015.7F         4/10
POINT CONCEPTION NOT AVBL
EAST SANTA BARBA 0800   57 59  230/ 10/ 12 1016.5F
SANTA MONICA BAY 0850   59 63  340/  4/  6 1016.1F         3/14


USA.gov is the U.S. government's official web portal to all federal, state and local government web resources and services.